Simultaneous Nadir Overpasses (SNOs) Predictions

Prediction of SNOs between AQUA and NOAA-19 Satellite Orbit:

Table of predicted SNOs for the next 14.0 days since TLE Epoch: 2/20/2021
Index Date (AQUA) Time (AQUA) Lat,Lon (AQUA) SZA (AQUA ) Date (NOAA-19) Time (NOAA-19) Lat,Lon (NOAA-19) SZA (NOAA-19 ) Distance(km) Time Diff (sec)
1 02/21/2021 18:01:02 79.09,-114.57 90.54 02/21/2021 18:00:52 79.13,-114.63 90.58 3.82 10
2 02/23/2021 23:34:46 -79.10, -18.02 90.28 02/23/2021 23:34:06 -79.10, -18.09 90.26 1.52 40
3 02/24/2021 00:24:13 79.11, 149.55 89.73 02/24/2021 00:25:04 79.14, 149.49 89.74 3.46 51
4 02/26/2021 05:08:30 79.09, 78.61 88.88 02/26/2021 05:07:17 79.10, 78.73 88.91 3.02 73
5 02/26/2021 05:57:56 -79.11,-113.91 91.11 02/26/2021 05:58:17 -79.13,-113.81 91.11 2.65 21
6 02/28/2021 11:31:40 79.11, -17.31 88.05 02/28/2021 11:31:28 79.11, -17.16 88.04 3.13 12
7 03/02/2021 17:05:23 -79.08, 79.43 92.86 03/02/2021 17:04:44 -79.07, 79.32 92.84 2.54 39
8 03/02/2021 17:54:50 79.09,-113.00 87.15 03/02/2021 17:55:40 79.12,-113.06 87.16 3.18 50
9 03/04/2021 22:39:07 79.08, 176.00 86.28 03/04/2021 22:37:53 79.08, 176.17 86.30 3.53 74



Historial Predications of SNOs between AQUA and NOAA-19
